This is the latest recevied weather packets stored in our database for station/object JA3QOS-13. If no packets are shown the sender has not sent any weather packets the latest 10 day(s).
| Time | Temp. | Humidity | Pressure | Rain* | Wind** | Luminosity | Snow |
|---|---|---|---|---|---|---|---|
| 1777851004 | 13.33° C | 92% | 1006 hPa | 0 mm | - | - | - |
| 1777849204 | 12.78° C | 94% | 1005.8 hPa | 0 mm | - | - | - |
| 1777847404 | 12.78° C | 97% | 1005.2 hPa | 0 mm | - | - | - |
| 1777845604 | 12.22° C | 99% | 1004.7 hPa | 0 mm | - | - | - |
| 1777843804 | 12.22° C | 99% | 1004.1 hPa | 0 mm | - | - | - |
| 1777842004 | 12.78° C | 99% | 1003.9 hPa | 0 mm | - | - | - |
| 1777840204 | 13.33° C | 92% | 1003.3 hPa | 0 mm | - | - | - |
| 1777838404 | 12.78° C | 99% | 1003 hPa | 0 mm | - | - | - |
| 1777836604 | 12.78° C | 99% | 1002.8 hPa | 0 mm | - | - | - |
| 1777834804 | 13.33° C | 99% | 1002.7 hPa | 0 mm | - | - | - |
| 1777833004 | 13.89° C | 99% | 1002.6 hPa | 1.02 mm | - | - | - |
| 1777831204 | 14.44° C | 99% | 1002 hPa | 1.02 mm | - | - | - |
| 1777829404 | 14.44° C | 99% | 1001.6 hPa | 0 mm | - | - | - |
| 1777827604 | 15.56° C | 99% | 1001.6 hPa | 0 mm | - | - | - |
| 1777825804 | 16.11° C | 99% | 1001.3 hPa | 0 mm | - | - | - |
| 1777824004 | 16.67° C | 99% | 1001.6 hPa | 1.02 mm | - | - | - |
| 1777822204 | 17.78° C | 99% | 1001.4 hPa | 6.35 mm | - | - | - |
| 1777820404 | 17.22° C | 99% | 1001.9 hPa | 12.7 mm | - | - | - |
| 1777818604 | 16.11° C | 99% | 1002.3 hPa | 16.51 mm | - | - | - |
| 1777816804 | 15.56° C | 99% | 1002.1 hPa | 13.46 mm | - | - | - |
| 1777815004 | 15.56° C | 99% | 1002.6 hPa | 6.35 mm | - | - | - |
| 1777813204 | 15.56° C | 99% | 1003.4 hPa | 5.08 mm | - | - | - |
| 1777811404 | 15.56° C | 99% | 1003.3 hPa | 3.81 mm | - | - | - |
| 1777809604 | 15° C | 99% | 1003.8 hPa | 3.05 mm | - | - | - |
| 1777807804 | 15° C | 99% | 1004 hPa | 1.78 mm | - | - | - |
* Rain latest hour (hover to see other rain measurements)
** Current wind speed in m/s (hover to see current wind gust speed)